CARTOSAT-2D

Last updated on Mon Jun 22 2026 00:02:52 GMT+0000 (Coordinated Universal Time)

1 41948U 17008A 26172.50553581 .00006091 00000+0 29221-3 0 9996 2 41948 97.4102 231.7316 0004211 216.1249 143.9702 15.19237778518232
UTC large
Height (km)
Speed (km/s)
/
Latitude / Longitude
Inclination (degrees)
Orbital Period (minutes)
Azimuth
Elevation
Range (km)
Doppler Factor

Next 0 passes for location: London (51.5072 / 0.1276)

No passes found over London.
CARTOSAT-2D